STARLINK-1502, 45764

Orbit data source: Space-Track

STARLINK-1502, 45764 is a payload satellite owned by SpaceX/Seattle (US) in LEO that was launched on Sat, 13 Jun 2020 UTC via an FALCON 9 launch vehicle from the Air Force Eastern Test Range (AFETR). Payload-class satellites include a variety of spacecraft equipped with specific instruments for various scientific and technological missions. These include communications satellites like Starlink; space stations such as the ISS; scientific satellites like the Hubble; Earth observation satellites from companies like Planet Labs, Umbra, and HawkEye 360; GPS; miniature CubeSats for education and research; and military/defense satellites.

Loading next visibility...
Identifier
45764, 2020-038AL
Orbit
LEO
Country
Flag of USUS
Related business
Manufacturer
SpaceX/Seattle
Mission
Operational Commercial Communications
Bus & Motor
STARLINK, Unknown motor
Mass
260 kg wet, ~248 kg dry
Launch date (UTC)
2020-06-13 (5 years ago)
Launch vehicle
FALCON 9
Launch site
Air Force Eastern Test Range (AFETR)
Object type
Payload
Rocket body
Debris
Shape & HBR
Box + 1 Pan, 10.1 m
Radar Cross Section
13.562 m², Large (>1 m²)

Expand to show TLE details & history
Last TLE update: 12 hours ago

TLE from 12 hours ago
0 STARLINK-1502
1 45764U 20038AL  25343.19026845 -.00000059  00000-0  14914-4 0  9999
2 45764  53.0543 262.8859 0001444 114.6471 245.4669 15.06393888302849
Epoch: 2025-12-09T04:33Z
TLE epoch observation values (Epoch: 2025-12-09T04:33:59.194Z)
Latitude
0.00004°
Longitude
116.21078°
Altitude
548.525 km
Speed
7.589 km/s
True Right ascension
17h 31m 32s
True Declination
0° 00' 00"
Sunlit
Object was in daylight at epoch
Visualization orbit readout
Latitude
Unknown
Longitude
Unknown
Altitude
Unknown
Speed
Unknown
Apparent Right ascension
Unknown
Apparent Declination
Unknown
Sunlit
N/A
Visualization observer readout
Local Sidereal Time
14:38:54
Azimuth
Unknown
Elevation
Unknown
Doppler factor
Unknown
Orbital elements
Apogee altitude
548.501 km
Perigee altitude
546.501 km
Semi-major axis
6,925.638 km
Eccentricity
0.00014
Inclination
53.0543°
RAAN
262.8859°
Arg. of periapsis
114.6471°
True anomaly
245.45185°
Mean anomaly
245.4669°
Eccentric anomaly
245.45937°
Mean motion
3.76577 °/min
Orbital period
95.6 mins
BSTAR
0.000014914
Loading maneuver chart data...
Computing Atmospheric mass density...
Loading historical data...
Loading historical data...
Loading historical data...
Loading historical data...
Loading historical data...
Loading historical data...
Loading historical data...

Documentation

Showing up to 5 results
|